Location: Le Teil
(44.5468°N, 4.6817°E)
Time: 07:00:20
(UTC+00:00)

Daily predictions for brighter satellites

Satellite Brightness Start Highest point End
(mag) Time Altitude Azimuth Time Altitude Azimuth Time Altitude Azimuth
CSL-04 Debris 4.4 18:02:21 10° SE 18:07:31 49° ENE 18:12:42 10° N
Cosmos 1939 Rocket 3.4 18:05:45 10° S 18:09:51 67° W 18:13:59 10° NNW
CZ-2D R/B 3.4 18:06:01 10° SSE 18:09:55 87° WSW 18:13:50 10° NNW
Sich 1 Rocket 4.4 18:06:35 10° SSE 18:10:28 30° E 18:14:24 10° NNE
Cosmos 1689 Rocket 4.4 18:11:35 10° N 18:14:16 30° WNW 18:16:56 10° SW
Meteor 1-21 4.3 18:08:47 10° N 18:14:19 57° ENE 18:19:48 10° SSE
Helios 1A Rocket 3.8 18:10:35 10° S 18:14:36 56° W 18:18:41 10° NNW
MOS 1 Rocket 3.9 18:11:25 10° NNE 18:15:19 29° E 18:19:06 10° SSE
CSL-04 Rocket 3.8 18:10:40 10° SSE 18:15:55 56° ENE 18:21:18 10° N
Cosmos 1603 3.7 18:10:16 10° NNW 18:15:59 81° ENE 18:21:37 10° SSE
SJ 16-02 2.5 18:13:54 10° SW 18:18:08 48° WNW 18:22:23 10° N
Cosmos 2112 Rocket 4.2 18:16:03 10° NNW 18:21:16 77° WSW 18:26:29 10° SSE
Cosmos 1937 Rocket 3.5 18:16:37 10° S 18:21:50 68° ESE 18:27:01 10° NNE
NOSS 8 (H) 4.2 18:19:19 10° SW 18:22:35 85° NW 18:25:36 10° NE
Cosmos 1680 Rocket 4.1 18:19:35 10° NNW 18:24:45 62° WSW 18:29:54 10° S
Abrixas rocket 2.8 18:26:11 10° W 18:28:56 42° N 18:31:40 10° ENE
Okean 2 Rocket 3.9 18:25:07 10° SSE 18:29:00 29° E 18:32:54 10° NNE
Cosmos 1464 Rocket 4.4 18:24:57 10° SSE 18:30:35 40° E 18:36:17 10° NNE
NOSS 2-2 (E) 3.0 18:27:29 10° SSW 18:30:54 60° ESE 18:34:41 10° NE
Okean-O 3.7 18:31:01 10° S 18:35:18 49° W 18:39:37 10° NNW
USA 116 3.5 18:32:24 10° NNE 18:35:52 88° ESE 18:39:44 10° SSW
Okean 2 3.8 18:32:26 10° NNW 18:36:36 68° W 18:40:43 10° S
ATLAS 2AS CENTAUR R/B 4.3 18:33:04 10° SE 18:36:42 14° ESE 18:40:22 10° ENE
Cosmos 1300 Rocket 4.2 18:33:37 10° SSE 18:37:35 34° E 18:41:37 10° NNE
CZ-2C R/B 2.9 18:35:38 10° SW 18:38:00 17° S 18:39:59 11° SE
NOSS 2-2 (D) 3.1 18:36:10 10° SSW 18:39:35 57° ESE 18:43:18 10° NE
Iridium 4 Rocket 4.1 18:38:49 10° SSW 18:43:40 63° W 18:49:02 10° N
USA 102 4.2 18:38:58 11° SE 18:43:51 27° E 18:45:14 20° NE
YAOGAN 1 3.4 18:40:26 10° S 18:44:39 53° W 18:48:54 10° NNW
Cosmos 1975 3.8 18:41:20 10° SSW 18:45:20 53° WNW 18:49:21 10° N
CENTAUR R/B 3.9 18:38:23 10° NNW 18:45:37 38° NE 18:51:59 16° E
H-2A R/B 1.9 18:43:48 10° SSE 18:48:45 86° ENE 18:53:51 10° NNW
SJ-11-01 4.3 18:44:38 10° SSE 18:49:22 85° WSW 18:54:06 10° NNW
CZ-4 R/B 3.1 18:46:09 10° SSW 18:50:05 37° W 18:54:01 10° NNW
Cosmos 1437 3.7 18:48:17 10° NNW 18:51:11 44° W 18:54:02 10° S
Cosmos 1674 4.1 18:48:45 10° NNE 18:51:38 20° ENE 18:52:09 19° E
ATLAS 3B R/B 4.4 18:47:12 10° NNW 18:51:56 19° NNE 18:56:45 10° ENE
ISS -3.8 18:50:34 10° SW 18:53:55 68° SE 18:56:09 19° ENE
Cosmos 1536 Rocket 4.1 18:52:07 10° N 18:56:16 37° ENE 18:58:59 19° SE
USA 238 DEB 4.2 18:50:22 10° NNW 18:57:21 50° NE 19:02:30 20° ESE
USA 238 4.2 18:50:28 10° NNW 18:57:27 50° NE 19:02:35 20° ESE
Cosmos 1891 Rocket 4.4 18:51:53 10° S 18:57:58 70° E 19:04:01 10° NNE
In-Cosmos 22 4.1 18:53:40 10° N 18:58:54 57° ENE 19:04:09 10° SSE
ARGOS 3.1 18:56:55 10° SSE 19:02:16 87° ENE 19:07:41 10° NNW
Cosmos 1025 Rocket 3.0 19:01:57 10° N 19:06:20 63° E 19:10:02 14° SSE
CZ-2C R/B 2.9 19:01:19 10° NNE 19:06:42 50° E 19:12:07 10° S
Cosmos 1707 2.7 19:05:43 10° N 19:09:34 81° W 19:13:23 10° S
Cosmos 2151 Rocket 3.6 19:06:00 10° S 19:10:20 57° E 19:14:45 10° NNE
USA 186 1.5 19:13:02 31° SSE 19:14:22 80° ENE 19:17:37 10° N
Ariane Rocket 2.9 19:12:56 14° SSE 19:17:13 73° ENE 19:22:19 10° N
SJ-6B 2.7 19:16:15 34° SE 19:17:39 60° ENE 19:21:21 10° N
CZ-2C R/B 4.4 19:13:32 10° SSW 19:18:25 41° W 19:23:37 10° NNW
Cosmos 1844 4.0 19:14:08 10° S 19:19:29 43° ESE 19:24:48 10° NE
FREGAT/IRIS 3.1 19:20:39 38° NNE 19:20:39 38° NNE 19:22:30 10° N
Cosmos 2263 Rocket 3.8 19:16:34 10° WSW 19:21:39 35° NW 19:26:47 10° N
Nadezhda 4 Rocket 3.9 19:17:48 10° N 19:23:56 73° E 19:29:17 14° SSE
NOSS 2-2 (C) 4.1 19:20:49 10° WSW 19:24:13 47° NW 19:28:01 10° NNE
Cosmos 494 Rocket 4.4 19:19:34 10° N 19:24:35 43° ENE 19:26:05 35° ESE
NOSS 3-2 (A) 4.0 19:17:40 10° NW 19:25:12 74° NE 19:30:19 26° SE
MOS 1 4.2 19:21:25 17° SSE 19:25:54 76° ENE 19:31:38 10° NNW
Cosmos 2034 Rocket 3.9 19:21:43 10° S 19:28:05 80° E 19:34:27 10° N
Cosmos 1844 Rocket 2.6 19:22:40 10° S 19:28:08 63° ESE 19:33:41 10° NNE
USA 102 4.1 19:24:06 21° SSE 19:28:25 59° SW 19:29:58 27° NW
Cosmos 2298 Rocket 4.0 19:25:14 10° SSW 19:30:34 88° ESE 19:35:56 10° NNE
SPOT 3 Rocket 3.8 19:32:57 40° ESE 19:34:13 48° ENE 19:39:11 10° N
Resurs 01 Rocket 2.2 19:42:54 39° ENE 19:42:54 39° ENE 19:46:42 10° N
USA 234 3.2 19:37:35 10° NE 19:44:03 60° SE 19:50:30 10° SW
MetOp-A 4.1 19:42:59 25° S 19:46:14 81° WSW 19:51:37 10° NNW
Lacrosse 5 rocket 3.9 19:43:50 10° NW 19:46:41 17° N 19:49:28 10° NE
Cosmos 1833 Rocket 4.0 19:46:43 10° N 19:51:13 24° NE 19:51:25 24° NE
OBJECT-B 1.9 19:52:33 39° NNW 19:52:33 39° NNW 19:54:43 10° NNW
Meteor 1-15 Rocket 4.2 19:46:57 10° S 19:52:34 88° W 19:58:19 10° N
Cosmos 1626 3.9 19:54:27 10° N 19:56:03 23° NNE 19:56:03 23° NNE
ARIANE 5 R/B 4.0 20:01:02 27° NNE 20:01:02 27° NNE 20:03:30 10° N
NOSS 3-2 (C) 4.0 19:52:28 10° NW 20:00:02 77° NE 20:03:03 44° SE
DMSP B5D2-2 4.4 19:55:04 10° N 20:00:20 67° WNW 20:05:34 10° SSW
Cosmos 1634 Rocket 3.9 19:59:03 47° SSE 20:00:42 65° E 20:06:50 10° NNE
BREEZE-M TANK 2.6 19:56:49 10° WSW 20:04:29 88° S 20:04:38 83° E
Cosmos 2285 Rocket 3.9 20:01:44 10° SSW 20:08:02 89° WNW 20:14:26 10° NNE
Cosmos 1125 Rocket 3.7 20:02:50 10° SSW 20:08:08 73° WNW 20:13:28 10° NNE
Okean 1 Rocket 3.2 20:08:19 74° WSW 20:08:29 75° W 20:13:00 10° N
Cosmos 1627 Rocket 4.5 20:11:42 10° N 20:18:08 88° W 20:19:38 56° S
Resurs 1-3 4.1 20:18:56 55° W 20:18:56 55° W 20:23:14 10° NNW
Cosmos 1092 Rocket 4.2 20:17:19 10° NNW 20:23:25 65° W 20:25:37 40° SSW
Meteor 2-5 Rocket 3.8 20:19:00 10° NNW 20:24:38 72° W 20:25:27 62° SSW
ATLAS 2AS CENTAUR R/B 2.9 20:18:32 10° SSW 20:26:20 66° ESE 20:34:10 10° NE
Cosmos 1674 4.5 20:23:48 10° NNW 20:27:00 30° W 20:27:00 30° W
Cosmos 2026 Rocket 4.1 20:23:18 10° N 20:29:41 77° W 20:30:53 60° SSW
ISS -0.9 20:27:53 10° W 20:29:08 19° WNW 20:29:08 19° WNW
Cosmos 2082 Rocket 3.6 20:28:36 10° N 20:32:16 26° NNE 20:32:16 26° NNE
Meteor 1-22 Rocket 4.3 20:34:25 76° WSW 20:34:47 80° W 20:40:51 10° N
CENTAUR R/B 3.2 20:28:57 10° NW 20:37:06 76° WSW 20:39:10 56° S
Cosmos 2279 Rocket 4.1 20:44:35 67° NNE 20:44:35 67° NNE 20:49:58 10° N
ATLAS 3B R/B 3.0 20:37:32 10° NNW 20:44:10 52° NE 20:44:10 52° NE
COSMOS 2406 3.7 20:38:39 10° NNW 20:43:10 54° N 20:43:10 54° N
Cosmos 2142 Rocket 4.5 20:47:06 79° WNW 20:47:06 79° WNW 20:53:18 10° N
Meteor 1-24 Rocket 4.1 20:41:56 10° NNW 20:47:08 59° W 20:47:08 59° W
Terra 4.1 21:02:36 18° N 21:02:36 18° N 21:03:56 10° N
Lacrosse 4 Rocket 4.3 21:06:07 10° NNW 21:06:37 13° N 21:06:37 13° N
Resurs 01 Rocket 4.1 21:20:28 19° WNW 21:20:28 19° WNW 21:22:33 10° NW
USA 234 3.9 21:24:44 37° NNE 21:27:00 52° NNW 21:33:17 10° W
Lacrosse 5 rocket 4.3 21:23:47 10° NNW 21:25:05 16° NNW 21:25:05 16° NNW
Cosmos 1833 Rocket 4.2 21:30:01 10° NNW 21:33:07 33° NW 21:33:07 33° NW
Cosmos 2082 Rocket 4.4 22:12:20 10° NW 22:14:06 20° NW 22:14:06 20° NW
ATLAS 2AS CENTAUR R/B 4.1 22:10:27 10° WSW 22:17:51 40° NW 22:25:09 10° NNE
ATLAS 3B R/B 4.4 22:28:29 10° NW 22:31:25 24° WNW 22:31:25 24° WNW
